• en France
  • Liste des pays
  • À 7 jours
  • Température de l'eau
  • Carte satellitaire
  • Carte météo
  • Widgets météo
  • user-avatar
    Se connecter

    Météo par heure à Yulara

    Ce jour, 18 Octobre, Jeudi

    Heure Température Précipitation Vent Pression Humidité
    00:00 +25°C° 0 mm 5 m/s 717 mmHg 18%
    01:00 +23°C° 0 mm 5 m/s 717 mmHg 19%
    02:00 +23°C° 0 mm 5 m/s 717 mmHg 21%
    03:00 +22°C° 0 mm 5 m/s 717 mmHg 23%
    04:00 +21°C° 0 mm 5 m/s 717 mmHg 24%
    05:00 +21°C° 0 mm 5 m/s 717 mmHg 25%
    06:00 +20°C° 0 mm 5 m/s 717 mmHg 26%
    07:00 +23°C° 0 mm 6 m/s 717 mmHg 22%
    08:00 +27°C° 0 mm 6 m/s 718 mmHg 19%
    09:00 +29°C° 0 mm 7 m/s 718 mmHg 16%
    10:00 +32°C° 0 mm 7 m/s 718 mmHg 15%
    11:00 +34°C° 0 mm 7 m/s 718 mmHg 15%
    12:00 +36°C° 0 mm 6 m/s 717 mmHg 14%
    13:00 +38°C° 0 mm 6 m/s 717 mmHg 14%
    14:00 +38°C° 0 mm 6 m/s 716 mmHg 13%
    15:00 +39°C° 0 mm 7 m/s 715 mmHg 14%
    16:00 +38°C° 0 mm 6 m/s 715 mmHg 14%
    17:00 +37°C° 0 mm 5 m/s 715 mmHg 15%
    18:00 +36°C° 0 mm 5 m/s 715 mmHg 16%
    19:00 +35°C° 0 mm 5 m/s 715 mmHg 18%
    20:00 +34°C° 0 mm 4 m/s 716 mmHg 20%
    21:00 +34°C° 0 mm 4 m/s 715 mmHg 19%
    22:00 +34°C° 0 mm 4 m/s 715 mmHg 21%
    23:00 +34°C° 0 mm 4 m/s 715 mmHg 23%

    Demain, 19 Octobre, Vendredi

    Heure Température Précipitation Vent Pression Humidité
    00:00 +33°C° 0 mm 4 m/s 715 mmHg 26%
    01:00 +33°C° 0 mm 5 m/s 715 mmHg 29%
    02:00 +32°C° 0 mm 5 m/s 715 mmHg 33%
    03:00 +32°C° 0 mm 6 m/s 714 mmHg 36%
    04:00 +30°C° 0 mm 6 m/s 714 mmHg 38%
    05:00 +30°C° 0 mm 6 m/s 714 mmHg 41%
    06:00 +29°C° 0 mm 6 m/s 714 mmHg 43%
    07:00 +32°C° 0 mm 8 m/s 715 mmHg 37%
    08:00 +34°C° 0 mm 10 m/s 715 mmHg 32%
    09:00 +37°C° 0 mm 12 m/s 716 mmHg 26%
    10:00 +38°C° 0 mm 11 m/s 716 mmHg 21%
    11:00 +39°C° 0 mm 10 m/s 716 mmHg 17%
    12:00 +40°C° 0 mm 8 m/s 716 mmHg 12%
    13:00 +42°C° 0 mm 9 m/s 715 mmHg 12%
    14:00 +42°C° 0 mm 9 m/s 715 mmHg 11%
    15:00 +42°C° 0 mm 9 m/s 715 mmHg 10%
    16:00 +40°C° 0 mm 9 m/s 715 mmHg 11%
    17:00 +39°C° 0 mm 9 m/s 715 mmHg 13%
    18:00 +37°C° 0 mm 9 m/s 715 mmHg 14%
    19:00 +34°C° 0 mm 9 m/s 716 mmHg 18%
    20:00 +33°C° 0 mm 9 m/s 717 mmHg 22%
    21:00 +31°C° 0 mm 9 m/s 717 mmHg 25%
    22:00 +28°C° 0 mm 9 m/s 718 mmHg 28%
    23:00 +27°C° 0 mm 9 m/s 718 mmHg 30%

    Après-demain, 20 Octobre, Samedi

    Heure Température Précipitation Vent Pression Humidité
    00:00 +26°C° 0 mm 9 m/s 719 mmHg 32%
    01:00 +23°C° 0 mm 9 m/s 719 mmHg 35%
    02:00 +22°C° 0 mm 9 m/s 719 mmHg 38%
    03:00 +21°C° 0 mm 9 m/s 719 mmHg 42%
    04:00 +20°C° 0 mm 8 m/s 719 mmHg 44%
    05:00 +18°C° 0 mm 8 m/s 720 mmHg 46%
    06:00 +17°C° 0 mm 8 m/s 720 mmHg 48%
    07:00 +18°C° 0 mm 8 m/s 721 mmHg 44%
    08:00 +21°C° 0 mm 8 m/s 721 mmHg 40%
    09:00 +22°C° 0 mm 8 m/s 722 mmHg 35%
    10:00 +24°C° 0 mm 7 m/s 721 mmHg 31%
    11:00 +27°C° 0 mm 7 m/s 721 mmHg 28%
    12:00 +29°C° 0 mm 6 m/s 720 mmHg 24%
    13:00 +30°C° 0 mm 5 m/s 720 mmHg 22%
    14:00 +32°C° 0 mm 5 m/s 719 mmHg 20%
    15:00 +32°C° 0 mm 4 m/s 718 mmHg 18%
    16:00 +32°C° 0 mm 4 m/s 718 mmHg 18%
    17:00 +32°C° 0 mm 4 m/s 718 mmHg 18%
    18:00 +32°C° 0 mm 4 m/s 719 mmHg 18%
    19:00 +29°C° 0 mm 4 m/s 719 mmHg 19%
    20:00 +28°C° 0 mm 5 m/s 719 mmHg 20%
    21:00 +27°C° 0 mm 6 m/s 720 mmHg 22%
    22:00 +26°C° 0 mm 6 m/s 719 mmHg 22%
    23:00 +24°C° 0 mm 6 m/s 719 mmHg 22%

    21 Octobre, Dimanche

    Heure Température Précipitation Vent Pression Humidité
    00:00 +23°C° 0 mm 7 m/s 719 mmHg 22%
    01:00 +22°C° 0 mm 6 m/s 719 mmHg 23%
    02:00 +22°C° 0 mm 6 m/s 718 mmHg 23%
    03:00 +21°C° 0 mm 6 m/s 718 mmHg 23%
    04:00 +20°C° 0 mm 5 m/s 718 mmHg 24%
    05:00 +20°C° 0 mm 5 m/s 718 mmHg 25%
    06:00 +19°C° 0 mm 4 m/s 718 mmHg 25%
    07:00 +22°C° 0 mm 5 m/s 719 mmHg 23%
    08:00 +24°C° 0 mm 6 m/s 719 mmHg 20%
    09:00 +28°C° 0 mm 7 m/s 719 mmHg 18%
    10:00 +29°C° 0 mm 6 m/s 719 mmHg 17%
    11:00 +32°C° 0 mm 5 m/s 718 mmHg 16%
    12:00 +34°C° 0 mm 4 m/s 718 mmHg 15%
    13:00 +35°C° 0 mm 5 m/s 717 mmHg 14%
    14:00 +36°C° 0 mm 5 m/s 716 mmHg 12%
    15:00 +39°C° 0 mm 5 m/s 715 mmHg 10%
    16:00 +37°C° 0 mm 4 m/s 715 mmHg 11%
    17:00 +37°C° 0 mm 4 m/s 715 mmHg 11%
    18:00 +36°C° 0 mm 3 m/s 715 mmHg 11%
    19:00 +35°C° 0 mm 3 m/s 715 mmHg 12%
    20:00 +33°C° 0 mm 3 m/s 716 mmHg 13%
    21:00 +31°C° 0 mm 2 m/s 716 mmHg 14%
    22:00 +30°C° 0 mm 2 m/s 716 mmHg 14%
    23:00 +29°C° 0 mm 3 m/s 715 mmHg 14%

    22 Octobre, Lundi

    Heure Température Précipitation Vent Pression Humidité
    00:00 +28°C° 0 mm 3 m/s 715 mmHg 14%
    01:00 +27°C° 0 mm 3 m/s 714 mmHg 16%
    02:00 +26°C° 0 mm 2 m/s 714 mmHg 18%
    03:00 +25°C° 0 mm 2 m/s 713 mmHg 19%
    04:00 +25°C° 0 mm 2 m/s 713 mmHg 20%
    05:00 +25°C° 0 mm 2 m/s 714 mmHg 20%
    06:00 +25°C° 0 mm 2 m/s 714 mmHg 20%
    07:00 +28°C° 0 mm 3 m/s 714 mmHg 17%
    08:00 +33°C° 0 mm 3 m/s 715 mmHg 13%
    09:00 +36°C° 0 mm 4 m/s 716 mmHg 9%
    10:00 +37°C° 0 mm 5 m/s 715 mmHg 9%
    11:00 +39°C° 0 mm 5 m/s 715 mmHg 9%
    12:00 +40°C° 0 mm 6 m/s 715 mmHg 9%
    13:00 +41°C° 0 mm 6 m/s 714 mmHg 9%
    14:00 +41°C° 0 mm 7 m/s 714 mmHg 9%
    15:00 +41°C° 0 mm 7 m/s 713 mmHg 9%
    16:00 +40°C° 0 mm 8 m/s 713 mmHg 10%
    17:00 +39°C° 0 mm 8 m/s 714 mmHg 11%
    18:00 +37°C° 0 mm 8 m/s 714 mmHg 12%
    19:00 +34°C° 0 mm 8 m/s 715 mmHg 16%
    20:00 +32°C° 0 mm 8 m/s 715 mmHg 20%
    21:00 +29°C° 0 mm 9 m/s 716 mmHg 23%
    22:00 +28°C° 0 mm 8 m/s 716 mmHg 26%
    23:00 +27°C° 0 mm 8 m/s 716 mmHg 29%

    23 Octobre, Mardi

    Heure Température Précipitation Vent Pression Humidité
    00:00 +26°C° 0 mm 8 m/s 717 mmHg 31%
    01:00 +23°C° 0 mm 8 m/s 717 mmHg 34%
    02:00 +22°C° 0 mm 8 m/s 717 mmHg 37%
    03:00 +21°C° 0 mm 8 m/s 717 mmHg 40%
    04:00 +20°C° 0 mm 8 m/s 718 mmHg 42%
    05:00 +18°C° 0 mm 8 m/s 718 mmHg 43%
    06:00 +17°C° 0 mm 9 m/s 719 mmHg 45%
    07:00 +18°C° 0 mm 9 m/s 719 mmHg 42%
    08:00 +20°C° 0 mm 8 m/s 720 mmHg 38%
    09:00 +21°C° 0 mm 8 m/s 720 mmHg 35%
    10:00 +23°C° 0 mm 8 m/s 720 mmHg 31%
    11:00 +26°C° 0 mm 7 m/s 719 mmHg 28%
    12:00 +28°C° 0 mm 7 m/s 719 mmHg 24%
    13:00 +29°C° 0 mm 6 m/s 718 mmHg 23%
    14:00 +30°C° 0 mm 6 m/s 718 mmHg 22%
    15:00 +32°C° 0 mm 5 m/s 717 mmHg 21%
    16:00 +32°C° 0 mm 5 m/s 717 mmHg 21%
    17:00 +30°C° 0 mm 5 m/s 717 mmHg 21%
    18:00 +30°C° 0 mm 5 m/s 717 mmHg 22%
    19:00 +29°C° 0 mm 6 m/s 718 mmHg 23%
    20:00 +27°C° 0 mm 6 m/s 718 mmHg 24%
    21:00 +26°C° 0 mm 6 m/s 718 mmHg 26%
    22:00 +24°C° 0 mm 6 m/s 718 mmHg 26%
    23:00 +24°C° 0 mm 7 m/s 718 mmHg 26%
    Voir plus